OpenBCM V1.08-5-g2f4a (Linux)

Packet Radio Mailbox

IZ3LSV

[San Dona' di P. JN]

 Login: GUEST





  
I0OJJ  > KEPS     20.10.25 01:28l 324 Lines 15318 Bytes #118 (0) @ AMSAT
BID : ORB25293.1
Read: GUEST
Subj: 2Line Orbital Elements 25293.AMSAT
Path: IZ3LSV<IK6IHL<IK7NXU<HB9ON<DK0WUE<ZL2BAU<N2NOV<I0OJJ<I0OJJ
Sent: 251020/0021z @:I0OJJ.ITA.EU [Rome] obcm1.08-11-2-gbfe9

>From i0ojj%i0ojj.ita.eu@i0ojj.ampr.org Mon Oct 20 02:21:08 2025
Received: from i0ojj.ampr.org by i0ojj.ampr.org (JNOS2.0q) with SMTP
	id AA17043330 ; Mon, 20 Oct 2025 02:21:08 +0200
Message-Id: <ORB25293.1@i0ojj.bbs>
>From: i0ojj@i0ojj.ita.eu
X-JNOS-User-Port: Telnet   (i0ojj @ 44.134.109.10)  -> Sending message

From: I0OJJ @ I0OJJ.ITA.EU (Gustavo)
To:   KEPS @ AMSAT
X-Info: This message was generated automatically


QST de W1STR

AMSAT Orbital Elements for Amateur Satellites in TLE Format
>From Orbital Analysis Office
New England Sci-Tech STEM Education Center
Natick MA October 20, 2025
To all radio amateurs


These element sets describe the orbits of various satellites 
in use by the amateur radio community. For details see:
www.amsat.org/keplerian-elements-formats/

A daily update of element sets is available at:
www.amsat.org/tle/daily-bulletin.txt
or without bulletin text:
www.amsat.org/tle/dailytle.txt


AO-07
1 07530U 74089B   25292.30180791 -.00000014  00000-0  20071-3 0  9991
2 07530 101.9987 297.9901 0011965 230.3967 141.0493 12.53692613330333
UO-11
1 14781U 84021B   25291.86024091  .00003390  00000-0  35841-3 0  9994
2 14781  97.7720 255.7782 0005999 261.4852  98.5686 14.89861294221189
AO-27
1 22825U 93061C   25292.17531739  .00000256  00000-0  11456-3 0  9997
2 22825  98.7223 354.2932 0009501  88.3098 271.9173 14.30847259672537
FO-29
1 24278U 96046B   25292.28347690  .00000041  00000-0  78419-4 0  9995
2 24278  98.5521 168.7137 0350040   1.4663 358.7423 13.53257181440589
NOAA-15
1 25338U 98030A   25292.28026007  .00000307  00000-0  14361-3 0  9994
2 25338  98.5282 314.2032 0009770 339.7837  20.2956 14.27038201426931
GO-32
1 25397U 98043D   25292.26603482  .00000209  00000-0  11065-3 0  9998
2 25397  98.9869 274.2331 0001476 146.2599 213.8673 14.24354179417038
ISS
1 25544U 98067A   25292.49238527  .00016769  00000-0  30915-3 0  9990
2 25544  51.6341  51.0415 0004290 310.7772  49.2843 15.49246617534445
NO-44
1 26931U 01043C   25292.11235129  .00000337  00000-0  15693-3 0  9993
2 26931  67.0493 147.7433 0007123 273.3112  86.7175 14.31808413255934
SO-50
1 27607U 02058C   25292.02045748  .00002430  00000-0  31094-3 0  9996
2 27607  64.5526 154.6796 0068650 306.8210  52.6610 14.82099366228702
CO-55
1 27844U 03031E   25292.07028774  .00000611  00000-0  28463-3 0  9991
2 27844  98.6787 298.6734 0009928 159.6633 200.4943 14.24110788157351
CO-57
1 27848U 03031J   25292.22131443  .00000561  00000-0  26637-3 0  9995
2 27848  98.6816 298.7274 0009508 176.5915 183.5330 14.23429519157099
RS-22
1 27939U 03042A   25292.30079032  .00002769  00000-0  44178-3 0  9994
2 27939  98.3371 105.0626 0010576 317.0174 144.0112 14.72736137180086
CO-58
1 28895U 05043F   25292.32323592  .00004532  00000-0  73645-3 0  9995
2 28895  98.2679  78.5073 0013396 247.8400 112.1385 14.71561880 66310
CO-65
1 32785U 08021C   25292.24180025  .00013385  00000-0  91919-3 0  9990
2 32785  97.8015 264.6187 0011526 119.6593 240.5783 15.06044236948887
CO-66
1 32791U 08021J   25292.20820758  .00034666  00000-0  14854-2 0  9994
2 32791  97.7405 275.5973 0006389  81.2755 278.9204 15.22667997950491
RS-30
1 32953U 08025A   25292.30701765  .00000046  00000-0  25576-3 0  9994
2 32953  82.5017 145.2814 0019791 116.1089 244.2030 12.43169494789760
NOAA-19
1 33591U 09005A   25292.22867182  .00000126  00000-0  90927-4 0  9991
2 33591  98.9838 357.5860 0013579 356.1743   3.9323 14.13419146860442
SRMSAT
1 37841U 11058D   25292.11022961  .00000539  00000-0  14882-3 0  9993
2 37841  19.9718  78.5720 0011836  71.4779  88.2983 14.11482868723714
ZACUBE-1
1 39417U 13066B   25291.84163741  .00012134  00000-0  10087-2 0  9992
2 39417  97.7972 248.3692 0041846 336.8152  23.1181 14.98179095644555
Delfi-N3xt
1 39428U 13066N   25292.25577467  .00021908  00000-0  21090-2 0  9999
2 39428  97.8301 208.5434 0079175 287.0627  72.1929 14.90605390638670
GOMX-1
1 39430U 13066Q   25292.32003065  .00004575  00000-0  70274-3 0  9998
2 39430  97.6660 142.8475 0132147 130.1025 231.1853 14.68238769634556
LO-74
1 39440U 13066AA  25292.33208571  .00011157  00000-0  10887-2 0  9996
2 39440  97.8614 236.1378 0062614 104.4235 256.3943 14.91109335641060
AO-73
1 39444U 13066AE  25292.14693159  .00018398  00000-0  12911-2 0  9993
2 39444  97.7979 254.8348 0037849 304.5466  55.2190 15.04628764643353
DTUSAT-2
1 40030U 14033W   25291.90638599  .00016560  00000-0  10098-2 0  9994
2 40030  98.0696 270.3569 0008201 351.0470   9.0611 15.10406932616203
EO-80
1 40032U 14033Y   25292.25076099  .00018300  00000-0  11126-2 0  9993
2 40032  98.0580 270.1912 0005895 278.5620  81.4940 15.10504176616234
LILACSAT-2
1 40908U 15049K   25292.34729685  .00029382  00000-0  67712-3 0  9994
2 40908  97.4984 316.1254 0009949  55.4979 304.7206 15.42500712558519
IO-86
1 40931U 15052B   25151.18580175  .00001241  00000-0  78118-4 0  9996
2 40931   6.0006  24.0987 0012733 338.8432  21.1169 14.78805930523159
Horyu-4
1 41340U 16012D   25291.79475140  .00058475  00000-0  12071-2 0  9990
2 41340  30.9954 325.4592 0003182   7.5282 352.5413 15.44565291533031
Lapan A3
1 41603U 16040E   25292.32441552  .00007998  00000-0  26953-3 0  9992
2 41603  97.1424 291.8845 0011697 149.3024 210.8905 15.30929070517933
CAS-2T
1 41847U 16066G   25292.16123065  .00003726  00000-0  53156-3 0  9998
2 41847  98.4099   5.4348 0345399 140.1626 222.5477 14.43912001470007
CAS-4B
1 42759U 17034B   25286.97241530  .03437790  89859-5  10544-2 0  9999
2 42759  42.9888 273.3261 0008257 129.3938 230.7682 16.25684504462550
CAS-4A
1 42761U 17034D   25281.34159269  .04203186  90411-5  12507-2 0  9993
2 42761  42.9927 303.5081 0008135  81.2710 278.9099 16.26032227461692
TechnoSat
1 42829U 17042E   25292.27311314  .00010060  00000-0  75345-3 0  9995
2 42829  97.4011  94.8586 0018378 195.1440 164.9238 15.02761363450499
AO-91
1 43017U 17073E   25292.16791470  .00019115  00000-0  92009-3 0  9998
2 43017  97.5027 159.6548 0167517  77.5796 284.4121 15.07196318429012
S-Net D
1 43186U 18014G   25292.28893479  .00013876  00000-0  77984-3 0  9999
2 43186  97.5482 193.8577 0010259 123.9719 236.2488 15.13367750422287
S-Net B
1 43187U 18014H   25292.29613637  .00013242  00000-0  74477-3 0  9998
2 43187  97.5488 193.8429 0011055 120.3215 239.9111 15.13344266422287
S-Net A
1 43188U 18014J   25292.28885563  .00013892  00000-0  78049-3 0  9997
2 43188  97.5496 194.0037 0010894 120.9164 239.3139 15.13373052422283
S-Net C
1 43189U 18014K   25292.29890152  .00012978  00000-0  72983-3 0  9994
2 43189  97.5513 194.0503 0012556 115.2475 245.0059 15.13337887420831
Ten-Koh
1 43677U 18084G   25292.26737558  .00005933  00000-0  46570-3 0  9996
2 43677  98.0705 109.7383 0009060 180.0675 180.0549 15.01296836379996
PO-101
1 43678U 18084H   25292.32441296  .00006150  00000-0  51193-3 0  9994
2 43678  98.1075 113.5945 0007484 190.8485 169.2576 14.99035283380119
QO-100
1 43700U 18090A   25292.27217058  .00000142  00000-0  00000-0 0  9991
2 43700   0.0181 231.6952 0001807  15.9843 264.0973  1.00270619 25262
MinXSS-2
1 43758U 18099A   25292.17410287  .00046762  00000-0  15584-2 0  9994
2 43758  97.4881 358.9313 0011222  56.7842 303.4473 15.30891704377063
AO-95
1 43770U 18099N   25292.12160837  .00021866  00000-0  10127-2 0  9992
2 43770  97.4765 348.8595 0011410 112.6850 247.5593 15.20060452376515
SNUSat 2
1 43782U 18099AA  25292.26054365  .00018970  00000-0  96333-3 0  9994
2 43782  97.4446 344.6317 0012773  62.3546 297.8983 15.16868342376448
SnugLite
1 43784U 18099AC  25292.25373449  .00023929  00000-0  10974-2 0  9998
2 43784  97.4260 344.4966 0004535  70.2176 289.9548 15.20431733376620
ITASat 1
1 43786U 18099AE  25292.09256315  .00015491  00000-0  83282-3 0  9992
2 43786  97.4417 343.5661 0015258 110.1526 250.1350 15.14867662376353
EAGLET 1
1 43790U 18099AJ  25292.25926854  .00009969  00000-0  61010-3 0  9995
2 43790  97.4614 343.2032 0013436  97.1645 263.1112 15.10333939375932
ESEO
1 43792U 18099AL  25292.10162335  .00002999  00000-0  22571-3 0  9992
2 43792  97.4332 334.5035 0014576  77.5717 282.7139 15.03168338375572
JO-97
1 43803U 18099AX  25292.24560587  .00032666  00000-0  13278-2 0  9998
2 43803  97.4513 350.3133 0007776  52.9877 307.2071 15.24454783376809
Suomi 100
1 43804U 18099AY  25292.09854925  .00023210  00000-0  10341-2 0  9997
2 43804  97.4579 349.0399 0012601  54.7025 305.5387 15.21367992376677
ISAT
1 43879U 18111D   25292.25591324  .00063870  00000-0  17710-2 0  9996
2 43879  97.5881 210.0103 0011003  90.8974 269.3531 15.36648532373869
UWE-4
1 43880U 18111E   25292.31121245  .00045150  00000-0  15049-2 0  9990
2 43880  97.5824 207.4910 0013605 102.2292 258.0473 15.30867011373741
Sparrow
1 43881U 18111F   25292.31105882  .00069116  00000-0  18097-2 0  9994
2 43881  97.6053 213.5188 0009088 114.0429 246.1768 15.38421613373988
Prox-1
1 44339U 19036A   25292.24884206  .00028924  00000-0  34197-2 0  9997
2 44339  23.9966 275.0945 0007435 138.5486 221.5576 14.83176653337562
Taurus 1
1 44530U 19059C   25292.32959734  .00018556  00000-0  32477-2 0  9992
2 44530  98.6204  78.2496 0008689 346.0569  14.0393 14.67856670323252
Duchifat 3
1 44854U 19089C   25292.18076825  .00244305  00000-0  21917-2 0  9999
2 44854  36.9346 229.5417 0009628 255.1746 104.7951 15.66545435323495
TO-108
1 44881U 19093C   25292.29329442  .00002016  00000-0  23690-3 0  9994
2 44881  97.7816   5.1328 0014300 153.9844 206.2093 14.85915067315632
FloripaSat 1
1 44885U 19093G   25292.30301126  .00015627  00000-0  12518-2 0  9997
2 44885  97.8093  20.2716 0011025 138.0682 222.1387 15.00188777316483
RS-44
1 44909U 19096E   25292.28815434  .00000048  00000-0  15082-3 0  9997
2 44909  82.5193 139.7969 0217354 347.9029  11.6899 12.79744734271536
